Regional Weather Roundup
Issued by NWS

Home | Current Version | Previous Version | Text Only | Print | Product List | Glossary On
Versions: 1 2 3 4 5 6 7 8 9 10 11 12 13 14 15 16 17 18 19 20 21 22 23 24 25 26 27 28 29 30 31 32 33 34 35 36 37 38 39 40 41 42 43 44 45 46 47 48 49 50
000
ASUS44 KBMX 290710
RWRAL

ALABAMA REGIONAL WEATHER ROUNDUP
NATIONAL WEATHER SERVICE BIRMINGHAM AL
200 AM CDT SUN MAY 29 2016

NOTE: "FAIR" INDICATES FEW OR NO CLOUDS BELOW 12,000 FEET
WITH NO SIGNIFICANT WEATHER AND/OR OBSTRUCTIONS TO VISIBILITY.

THE REMARK "TC" DENOTES TEMPERATURE IN DEGREES CELSIUS.

ALZ001>011-014-016>018-020-290800-
NORTH ALABAMA

CITY           SKY/WX    TMP DP  RH WIND       PRES   REMARKS
MUSCLE SHOALS  CLEAR     67  63  87 CALM      30.09F
HUNTSVILLE     CLEAR     67  64  90 CALM      30.10S
DECATUR        PTCLDY    64  63  96 CALM      30.10F
HALEYVILLE     FAIR      64  63  96 CALM      30.12F
GADSDEN        CLEAR     63  62  97 CALM      30.11R
$$

ALZ012-013-022-023-030>036-040>044-290800-
WEST CENTRAL ALABAMA

CITY           SKY/WX    TMP DP  RH WIND       PRES   REMARKS
TUSCALOOSA     CLEAR     68  67  96 NE3       30.08S
$$

ALZ015-024>027-033>036-040>044-290800-
CENTRAL ALABAMA

CITY           SKY/WX    TMP DP  RH WIND       PRES   REMARKS
BIRMINGHAM     PTCLDY    69  66  90 NE3       30.12S
MONTGOMERY     PTCLDY    73  68  84 CALM      30.07F
SHELBY CO ARPT CLEAR     68  65  90 CALM      30.09F
MAXWELL AFB    MOCLDY    73  68  87 VRB1      30.06F
GREENVILLE     FAIR      71  68  90 CALM      30.06F
$$

ALZ019-021-028-029-037-038-045>048-290800-
EAST CENTRAL ALABAMA

CITY           SKY/WX    TMP DP  RH WIND       PRES   REMARKS
ANNISTON       CLEAR     68  64  87 CALM      30.10F
ALEXANDER CITY CLEAR     67  67 100 CALM      30.09F
AUBURN         CLEAR    N/A N/A N/A NE3       30.10S
$$

ALZ051>064-290800-
SOUTHWEST ALABAMA

CITY           SKY/WX    TMP DP  RH WIND       PRES   REMARKS
MOBILE         CLEAR     66  66 100 CALM      30.07F
BROOKLEY FIELD CLEAR     69  68  96 NW5       30.07F
EVERGREEN      CLEAR     68  66  93 CALM      30.07F
$$

ALZ049-050-065>069-290800-
SOUTHEAST ALABAMA

CITY           SKY/WX    TMP DP  RH WIND       PRES   REMARKS
DOTHAN         CLEAR     72  67  84 NW6       30.09S
OZARK          CLEAR     70  69  96 NW5       30.05F
TROY           CLOUDY    69  67  93 CALM      30.08S
EUFAULA        FAIR      66  62  87 CALM      30.06
$$



USA.gov is the U.S. government's official web portal to all federal, state and local government web resources and services.